TimeMST,TemperatureF,Dew PointF,Humidity,Sea Level PressureIn,VisibilityMPH,Wind Direction,Wind SpeedMPH,Gust SpeedMPH,PrecipitationIn,Events,Conditions,WindDirDegrees,DateUTC
12:52 AM,24.8,17.6,74,30.13,-9999.0,Calm,Calm,-,N/A,,Clear,0,2013-02-03 07:52:00
1:52 AM,26.6,19.4,74,30.10,-9999.0,Calm,Calm,-,N/A,,Clear,0,2013-02-03 08:52:00
2:52 AM,26.1,18.0,71,30.14,-9999.0,WSW,4.6,-,N/A,,Clear,250,2013-02-03 09:52:00
3:52 AM,26.1,19.0,75,30.12,-9999.0,Calm,Calm,-,N/A,,Clear,0,2013-02-03 10:52:00
4:52 AM,24.8,17.6,74,30.02,-9999.0,Calm,Calm,-,N/A,,Clear,0,2013-02-03 11:52:00
5:52 AM,28.0,19.0,69,30.08,-9999.0,SSW,4.6,-,N/A,,Clear,210,2013-02-03 12:52:00
6:52 AM,26.1,17.1,69,30.06,10.0,WSW,5.8,-,N/A,,Clear,250,2013-02-03 13:52:00
7:52 AM,30.0,21.0,69,30.04,10.0,Calm,Calm,-,N/A,,Clear,0,2013-02-03 14:52:00
8:52 AM,35.1,24.1,64,30.00,10.0,Calm,Calm,-,N/A,,Clear,0,2013-02-03 15:52:00
9:52 AM,41.0,27.0,57,29.95,10.0,Calm,Calm,-,N/A,,Clear,0,2013-02-03 16:52:00
10:52 AM,50.0,21.9,33,29.92,10.0,SSW,9.2,-,N/A,,Clear,200,2013-02-03 17:52:00
11:52 AM,52.0,19.9,28,29.88,10.0,South,9.2,-,N/A,,Clear,180,2013-02-03 18:52:00
12:52 PM,54.0,18.0,24,29.86,10.0,SW,4.6,-,N/A,,Clear,230,2013-02-03 19:52:00
1:52 PM,57.9,15.1,19,29.81,10.0,NW,12.7,17.3,N/A,,Clear,320,2013-02-03 20:52:00
2:52 PM,55.0,15.1,21,29.82,10.0,NNW,24.2,36.8,N/A,,Clear,340,2013-02-03 21:52:00
3:52 PM,52.0,16.0,24,29.85,10.0,NNW,26.5,33.4,N/A,,Clear,340,2013-02-03 22:52:00
4:52 PM,46.0,18.0,33,29.86,10.0,NW,18.4,-,N/A,,Clear,310,2013-02-03 23:52:00
5:52 PM,42.1,19.0,40,29.88,10.0,NW,16.1,-,N/A,,Clear,320,2013-02-04 00:52:00
6:52 PM,41.0,19.9,43,29.91,10.0,NNW,18.4,-,N/A,,Clear,330,2013-02-04 01:52:00
7:52 PM,39.0,21.0,49,29.92,10.0,NNW,16.1,-,N/A,,Clear,330,2013-02-04 02:52:00
8:52 PM,36.0,21.0,55,29.94,10.0,NNW,11.5,-,N/A,,Clear,330,2013-02-04 03:52:00
9:52 PM,34.0,21.0,59,29.94,10.0,NW,8.1,-,N/A,,Clear,320,2013-02-04 04:52:00
10:52 PM,33.1,21.9,64,29.94,10.0,North,10.4,-,N/A,,Clear,350,2013-02-04 05:52:00
11:52 PM,32.0,21.9,66,29.95,-9999.0,NNW,11.5,-,N/A,,Clear,340,2013-02-04 06:52:00